Other Public Products
Issued by NWS Grand Forks, ND

Home | Current Version | Previous Version | Text Only | Print | Product List | Glossary Off
Versions: 1 2 3 4 5 6 7 8 9 10 11 12 13 14 15 16 17 18 19 20 21 22 23 24 25 26 27 28 29 30 31 32 33 34 35 36 37 38 39 40 41 42 43 44 45 46 47 48 49 50

000
FPUS83 KFGF 051310
OPUFGF
PRAIRIE TO PINES WEATHER ROUNDUP
NATIONAL WEATHER SERVICE EASTERN NORTH DAKOTA/GRAND FORKS ND
700 AM CST FRI FEB 05 2016

 **SATELLITE DATA USED TO AUGMENT SKY COVER AT AUTOMATED STATIONS**
 *****  WEATHER ACROSS EASTERN NORTH DAKOTA  *****

CITY           SKY/WX    TMP DP  RH WIND       PRES   REMARKS
GRAND FORKS    CLOUDY    17  12  80 S5        30.12S WCI  10
GRAND FORKS AF MOCLDY    16  12  87 CALM      30.11S
GRAND CITY NWS   N/A     16 N/A N/A S7          N/A  WCI   6
BUXTON           N/A     17  16  95 S6          N/A  WCI   9
DEVILS LAKE    CLOUDY    16  14  92 NW5       30.09R WCI   9
FARGO          CLOUDY    19  13  77 S15       30.13F WCI   5
WAHPETON ARPT  CLOUDY    16  12  86 SE12      30.17R WCI   3
$$

 *****  WEATHER ACROSS CENTRAL AND WESTERN NORTH DAKOTA  *****

CITY           SKY/WX    TMP DP  RH WIND       PRES   REMARKS
JAMESTOWN      CLOUDY    25  21  85 W3        30.07R
BISMARCK       CLOUDY    32  27  81 NW7       30.12R
MINOT          PTCLDY    22  14  71 W12       30.13R WCI  10
MINOT AFB      CLOUDY    20  17  87 NW9       30.13R WCI   9
GARRISON         N/A     19  16  88 NW9       30.13R WCI   8
WILLISTON      CLEAR     16  12  84 CALM      30.18R
DICKINSON      CLOUDY    22  20  92 NW9       30.13R WCI  12
HETTINGER      CLOUDY    29  25  85 NW14      30.13R WCI  18
$$

 *****  OTHER OBSERVATIONS NORTHEAST NORTH DAKOTA  *****

CITY           SKY/WX    TMP DP  RH WIND       PRES   REMARKS
WALHALLA       FAIR       9   9 100 W3        30.14S
LANGDON        FAIR      10   7  85 N7        30.08S WCI   0
CAVALIER       FAIR      14  10  85 CALM      30.14S
GRAFTON        FAIR      12  10  92 E5        30.15S WCI   4
CANDO          NOT AVBL
FORT TOTTEN      N/A     17  14  87 N5        29.95S WCI  10
ROLLA          CLOUDY    18  16  93 NW8       30.09S WCI   7
RUGBY          FAIR      12  10  92 W8        30.11R WCI   1
 ***** THE ABOVE OBSERVATIONS ARE NON NWS ARE NOT QUALITY
        CONTROLLED AND MAY MIS-REPORT RAIN FOR SNOW...
$$

 *****  OTHER OBSERVATIONS SOUTHEAST NORTH DAKOTA *****

CITY           SKY/WX    TMP DP  RH WIND       PRES   REMARKS
COOPERSTOWN    NOT AVBL
VALLEY CITY    CLOUDY    23  23 100 SW8       30.10R WCI  14
OAKES          LGT SNOW  21  21 100 SW10      30.11R WCI  10
GWINNER        NOT AVBL
SHEYENNE NWR     N/A     19  14  82 S5        29.95  WCI  12
BUFFALO          N/A     21  17  84 S9          N/A  WCI  10
WYNDMERE       NOT AVBL
 ***** THE ABOVE OBSERVATIONS ARE NON NWS ARE NOT QUALITY
       CONTROLLED AND MAY MIS-REPORT RAIN FOR SNOW...
$$

  *****  WEATHER ACROSS NORTHERN MINNESOTA  *****

CITY           SKY/WX    TMP DP  RH WIND       PRES   REMARKS
FLAG ISLAND    FLURRIES  10   7  85 SE3       30.16S
WARROAD        CLOUDY    16  10  79 CALM      30.15F
ROSEAU         CLOUDY    18  12  79 SE5       30.14F WCI  11
HALLOCK        PTCLDY    14  10  85 E6        30.14S WCI   5
THF RVR FALLS  CLOUDY    12  10  92 E6        30.14R WCI   3
HALSTAD        NOT AVBL
FOSSTON        CLOUDY    16  10  79 S8        30.13R WCI   5
BAUDETTE       CLOUDY    13   8  81 SE6       30.15S WCI   4
WASKISH        CLOUDY    14  10  85 E3        30.17R
CROOKSTON      MOCLDY    18  14  86 S8        30.14S WCI   7
$$
  *****  WEATHER ACROSS CENTRAL AND WEST MINNESOTA  *****

CITY           SKY/WX    TMP DP  RH WIND       PRES   REMARKS
BEMIDJI        CLOUDY    11   8  87 E5        30.15R WCI   3
PARK RAPIDS    CLOUDY    12   8  84 S12       30.15S FOG     WCI  -2
WADENA         CLOUDY    12   9  85 S9        30.17S WCI   0
DETROIT LAKES  CLOUDY    18  14  86 S10       30.14S WCI   6
MOORHEAD       CLOUDY    19  16  86 S14       30.14S WCI   6
FERGUS FALLS   CLOUDY    18  12  79 S13       30.20S WCI   4
ELBOW LAKE     CLOUDY    15  13  92 E13       30.17S WCI   1
MORRIS MN      CLOUDY    16  12  86 SE13      30.17F WCI   2
STAPLES        MOCLDY     9   7  92 S6        30.19S WCI  -1
WHEATON        CLOUDY    18  16  93 SE13      30.18S WCI   4
$$
  *****  WEATHER ELSEWHERE ACROSS MINNESOTA  *****

CITY           SKY/WX    TMP DP  RH WIND       PRES   REMARKS
DULUTH         CLOUDY     3  -1  83 CALM      30.23F
INTRNTL FALLS  CLOUDY     8   4  83 SE5       30.20R WCI   0
ELY            CLOUDY    -2  -8  78 CALM      30.22R
CLOQUET        CLOUDY     1  -2  85 CALM      30.24S
BRAINERD       CLOUDY     6   4  91 S3        30.22S
HIBBING        CLOUDY     0  -3  87 CALM      30.22R
ALEXANDRIA     CLOUDY    13  10  88 S12       30.19S WCI  -1
SAINT CLOUD    CLOUDY     2  -1  88 SE5       30.27S WCI  -8
MINNEAPOLIS    CLOUDY     9   6  88 S7        30.33R WCI  -2
$$

  *****  WEATHER ACROSS SOUTH DAKOTA  *****

CITY           SKY/WX    TMP DP  RH WIND       PRES   REMARKS
SIOUX FALLS    CLOUDY    17  11  77 S9        30.22S WCI   6
BROOKINGS      CLOUDY    14  11  87 S14       30.16  WCI  -1
WATERTOWN      CLOUDY    16  11  80 S14       30.13R WCI   2
HURON          CLOUDY    21  15  78 S10       30.14R WCI  10
SISSETON         N/A     25  17  72 S10       30.13S WCI  15
ABERDEEN       CLOUDY    23  18  81 S7        30.13R WCI  15
MITCHELL       CLOUDY    21  15  78 S9        30.18S WCI  11
PIERRE         PTCLDY    25  22  88 W9        30.10R WCI  15
MOBRIDGE       CLOUDY    29  24  82 CALM      30.07R
RAPID CITY     PTCLDY    30  26  85 N22G28    30.14R WCI  17
$$

  *****  SOME WEATHER IN NEARBY STATES *****

CITY           SKY/WX    TMP DP  RH WIND       PRES   REMARKS
GLASGOW MT     FOG       14  12  92 NW3       30.18R VSB 1/4
GREAT FALLS MT CLOUDY    29  19  66 SW16      30.21S WCI  17
CHEYENNE WY    CLEAR     20   8  60 NW15      30.21R WCI   6
SCOTTSBLUFF NE CLEAR     18  11  74 NW12      30.24R WCI   5
OMAHA NE       CLOUDY    20  17  88 SE8       30.36R WCI  10
DES MOINES IA  CLOUDY    15  10  80 W3        30.39R
DAVENPORT IA   CLOUDY    25  18  74 N9        30.38R WCI  15
CHICAGO IL     CLOUDY    29  25  85 NW6       30.30R WCI  23
EAU CLAIRE WI  PTCLDY     3  -2  79 SW3       30.33R
LA CROSSE WI   FOG        4   2  91 CALM      30.37R VSB 1/4
$$

  *****  SOME NATIONAL WEATHER *****

CITY           SKY/WX    TMP DP  RH WIND       PRES   REMARKS
LA GUARDIA NY  LGT SNOW  34  29  82 N18G24    30.12R WCI  23
RALEIGH NC     MOCLDY    38  29  70 CALM      30.24R
ATLANTA GA     CLEAR     30  16  56 NW9       30.35R WCI  22
NEW ORLEANS LA CLEAR     42  26  53 NE12      30.50R
OKLAHOMA CITY  CLOUDY    34  24  67 S9        30.35R
ALBUQUERQUE NM CLOUDY    24  13  62 N23G33    30.33R WCI   9
SALT LAKE CITY CLOUDY    27  24  89 SE6       30.53R FOG     WCI  20
LOS ANGELES CA PTCLDY    51  28  41 CALM      30.28S
BOISE ID       CLEAR     32  31  96 NE3       30.53S FOG
SEATTLE WA     MOCLDY    40  37  89 CALM      30.26F
$$

*** WEATHER ACROSS MANITOBA...SASKATCHEWAN AND ONTARIO ***
                ***ONTARIO***

CITY           SKY/WX    TMP DP  RH WIND       PRES   REMARKS
GERALDTON      PTCLDY    -2  -6  84 W6        30.16R WCI -14
THUNDER BAY    PTCLDY    -6  -9  84 W6        30.28R WCI -18
SIOUX LOOKOUT  PTCLDY   -17 -22  76 CALM      30.18R
TORONTO        MOCLDY    28  21  74 NE6       30.28R WCI  22
BIG TROUT LK   CLEAR    -26 -31  75 CALM      30.17S
PICKLE LAKE    FLURRIES  -2  -8  78 VRB2      30.13S
DRYDEN         CLOUDY     0  -4  85 S3        30.16S
KENORA         LGT SNOW   7   3  85 SE6       30.15S WCI  -3
$$
                *** MANITOBA***

CITY           SKY/WX    TMP DP  RH WIND       PRES   REMARKS
BRANDON        MOCLDY     7   3  85 W7        30.12S WCI  -5
DAUPHIN        CLOUDY     9   7  92 W6        30.13F WCI  -1
ISLAND LAKE    FLURRIES -15 -20  76 SE2       30.15F
PILOT MOUND      N/A      3   1  92 W2          N/A
THE PAS        FLURRIES   1  -2  85 CALM      30.11
THOMPSON       CRYSTALS -27 -33  75 CALM      30.13S
WINNIPEG       FLURRIES  12  10  92 E2        30.15S
LYNN LAKE      CLEAR    -27 -33  75 NW7       30.10R WCI -46
CHURCHILL      CRYSTALS -38 -45  67 W8        30.16S WCI -61
GILLAM         FLURRIES -18 -24  76 SW2       30.13S
$$
                ***SASKATCHEWAN***

CITY           SKY/WX    TMP DP  RH WIND       PRES   REMARKS
ESTEVAN        PTCLDY    12  10  92 W7        30.13S WCI   2
KINDERSLEY     PTCLDY     9   5  85 S9        30.01F WCI  -5
LLOYDMINSTER   CLOUDY    23  16  74 SW8       29.93F WCI  14
PRINCE ALBERT  FLURRIES  14  10  85 SW6       30.02S WCI   5
REGINA         MOCLDY     9   7  92 S6        30.10S WCI  -1
YORKTON        CLOUDY    14  12  92 SW5       30.09R WCC1F1C2F2C3F3C4F4C5F5C6F6C7F7C8F8C9F9CaFaCbFbCcFcCdFdCe!


USA.gov is the U.S. government's official web portal to all federal, state and local government web resources and services.